Theta_e
344 343 343 341 339 339 336 335 335 335 334 331 329 330 331 329 327 324 321 318 316 316 317 319 321 322 326 331 336 336 334 331 327 322 320 320 319 318 317 315 315 315 315 315 316 319 318 313 311 310 309 309 310 310 311 311 310 311 310 310 311 314 316 315 315 314 312 310 316 314 314 326 330 331 332 331 330 327 325 326 329 330 332 332 333
343 342 342 341 338 338 336 335 335 335 334 331 329 331 331 329 327 325 322 319 318 318 318 320 321 322 324 328 332 334 333 330 325 319 317 318 317 317 316 315 315 315 315 316 319 324 322 313 311 309 309 310 310 311 312 313 314 315 313 312 313 313 314 317 318 317 317 313 310 308 309 323 328 329 332 331 331 328 325 325 328 330 331 332 333
341 341 340 338 337 336 335 335 336 335 334 331 329 331 331 330 328 325 323 320 320 320 320 322 325 326 326 327 328 330 329 327 322 316 316 317 319 319 316 315 315 315 315 316 318 320 318 312 311 309 311 313 315 316 317 320 320 319 318 318 316 317 319 319 322 320 321 320 312 308 308 319 327 328 330 331 331 330 327 326 326 329 331 332 333
339 339 337 335 335 335 335 336 336 335 334 331 329 331 331 330 328 326 324 321 320 321 322 323 326 326 325 326 325 325 325 323 319 316 319 324 329 326 318 315 315 315 315 315 316 315 314 313 311 311 314 318 321 323 325 327 327 325 325 324 322 324 327 322 321 322 323 323 315 310 309 316 324 327 328 330 330 331 330 328 327 328 331 332 332
336 335 334 334 334 335 335 336 336 335 334 331 329 331 331 331 329 326 325 323 321 319 320 321 323 323 322 323 322 322 321 320 317 317 326 332 333 327 318 316 316 315 315 315 315 315 314 313 312 314 317 321 324 327 329 330 330 331 331 329 327 327 329 326 322 323 324 324 316 311 311 315 321 323 323 326 329 331 331 330 329 327 328 331 332
333 331 332 333 334 334 335 336 336 335 334 331 329 330 331 331 329 327 326 324 322 319 318 317 318 318 319 319 319 321 320 320 319 319 325 329 329 327 321 316 315 315 315 314 314 314 314 314 315 317 320 324 326 328 329 330 331 333 332 330 330 327 328 328 326 324 325 324 316 309 312 316 321 322 320 322 327 329 330 331 329 327 326 328 330
330 330 331 332 334 334 335 336 336 336 335 331 329 330 331 331 330 328 326 325 324 322 320 318 317 317 317 317 318 322 322 322 324 325 326 324 322 325 324 318 315 315 315 314 313 314 314 315 317 320 323 326 327 328 328 329 331 332 331 330 330 327 327 328 327 326 324 322 314 308 310 314 321 325 322 318 321 325 328 329 328 327 324 325 327
329 330 330 331 333 334 335 336 336 336 335 332 329 330 331 331 330 329 327 326 325 324 322 319 319 320 320 320 320 324 324 322 323 326 327 323 319 321 325 324 318 315 315 314 313 313 314 315 318 321 324 325 327 329 329 330 332 332 331 328 328 328 328 328 328 327 323 319 311 308 309 310 315 322 321 316 318 322 324 325 325 326 324 322 323
330 330 329 330 332 334 335 336 336 336 335 333 329 329 331 332 332 331 328 326 326 325 324 320 319 322 323 323 324 326 325 323 323 322 322 321 319 319 323 325 320 317 316 313 312 313 314 315 317 320 323 326 328 329 331 332 332 331 328 326 327 328 328 327 328 326 323 319 312 307 308 309 312 315 317 318 319 317 316 319 321 322 323 321 318
330 330 329 329 330 333 335 335 336 336 336 334 329 328 331 332 332 332 330 327 325 325 325 322 320 322 324 324 325 326 326 325 324 323 321 320 319 318 319 319 319 319 318 314 313 313 313 314 316 320 324 327 328 330 331 332 331 329 326 326 328 328 328 327 328 326 324 321 312 308 307 308 310 312 315 317 316 313 311 315 318 320 322 323 319
331 331 330 329 329 331 334 335 336 336 336 335 330 328 331 332 332 333 332 328 325 325 325 323 322 324 325 326 327 327 326 325 324 323 322 321 319 318 318 317 318 319 318 316 313 313 313 314 317 321 325 328 328 329 330 331 330 329 326 327 327 327 328 327 327 326 326 321 312 309 308 307 309 310 312 312 312 312 312 313 316 318 319 319 317
332 331 330 329 328 330 333 335 336 336 336 335 331 328 330 332 333 333 334 329 324 323 324 324 324 325 326 327 327 326 325 323 322 321 320 320 319 318 318 319 320 318 317 317 314 313 314 314 318 322 326 328 328 328 330 331 331 329 326 327 328 327 327 327 328 327 325 318 311 310 308 307 308 309 310 311 311 311 311 311 311 311 312 312 311
332 331 329 328 327 329 332 334 335 336 336 336 331 328 330 331 332 333 334 330 323 322 322 323 324 325 326 326 325 324 323 323 321 320 319 318 318 319 319 321 325 323 318 317 316 314 314 316 318 322 326 328 328 329 331 331 331 330 327 327 328 327 326 327 329 326 321 314 311 311 309 308 307 307 309 310 310 310 311 310 308 308 308 307 308
332 330 328 327 326 328 330 333 335 336 336 336 332 329 329 331 332 333 334 328 321 320 320 321 322 324 325 325 326 325 323 322 322 322 320 318 318 318 319 321 325 323 319 318 318 316 314 316 318 321 326 328 329 331 332 332 332 331 328 328 328 327 327 328 328 325 321 317 313 311 311 310 308 307 308 309 309 310 310 309 309 308 307 307 307
332 330 328 326 326 327 329 332 334 336 336 335 333 330 329 332 332 334 333 325 320 320 318 318 321 326 329 330 330 328 327 326 325 324 322 321 319 318 318 319 320 321 321 320 318 318 316 315 317 321 325 328 331 332 333 332 333 333 330 330 328 327 329 329 328 326 326 323 315 312 312 311 310 308 307 308 309 309 309 309 309 309 309 308 308
333 331 329 328 326 327 329 333 335 336 336 335 333 330 330 332 332 333 330 323 321 320 318 319 325 332 333 333 333 332 332 331 328 326 324 323 323 322 320 320 324 327 328 325 319 318 317 316 317 320 323 329 332 333 333 333 334 334 332 331 329 329 331 331 330 330 330 328 320 314 312 312 312 310 308 307 308 308 309 309 309 310 309 309 309
333 332 330 328 326 327 330 333 335 336 336 335 332 330 331 332 332 332 327 323 322 321 320 323 329 333 334 333 334 333 334 332 328 326 326 326 325 324 322 321 327 332 332 328 323 319 317 317 317 318 321 328 333 333 333 334 334 334 333 332 331 331 332 331 332 332 332 329 323 318 314 311 312 311 309 308 307 308 308 309 309 309 309 309 310
333 332 331 328 327 328 331 333 335 336 335 335 332 330 332 332 332 329 325 322 322 323 324 327 331 332 333 333 334 334 333 330 328 326 327 330 327 322 322 321 323 326 327 326 325 321 316 316 317 317 319 326 332 333 333 334 334 334 334 333 332 333 332 332 333 332 332 330 327 322 317 313 311 311 311 309 307 307 307 308 308 308 309 309 309
333 332 330 328 327 328 330 332 334 335 335 334 331 331 332 332 331 327 323 322 323 326 328 330 331 332 333 333 333 334 332 330 328 327 329 331 327 322 320 319 318 319 319 319 321 320 317 316 316 316 318 324 331 332 333 334 334 334 334 333 333 333 333 333 333 332 331 331 329 324 319 315 312 311 311 311 309 307 307 307 307 308 308 308 308
333 332 330 328 327 329 332 332 333 334 334 333 331 332 333 333 330 325 322 322 325 329 331 331 332 332 333 333 333 333 332 330 329 327 329 331 328 326 323 321 319 317 317 317 317 318 319 319 317 316 316 320 325 331 333 333 334 334 333 333 333 333 333 332 332 332 332 332 331 327 322 318 315 313 311 311 310 308 307 307 307 306 307 307 308
333 331 330 329 328 331 333 332 333 333 333 332 330 332 333 333 328 323 322 325 328 331 332 332 333 333 333 333 332 332 331 330 329 328 328 330 330 329 328 326 324 321 320 319 318 317 318 319 319 317 316 316 320 329 332 330 333 334 334 334 333 332 332 332 332 332 332 331 331 330 326 321 318 317 314 313 311 309 308 307 306 306 306 306 307
331 331 331 330 329 330 333 333 333 333 332 331 331 333 333 331 326 322 325 327 330 332 332 332 333 333 333 333 332 331 329 328 328 328 328 330 331 330 329 329 327 324 322 321 320 319 318 318 318 318 317 316 317 323 326 327 333 335 334 334 333 332 332 332 332 331 331 331 331 330 327 323 321 320 318 316 313 311 309 308 307 306 306 306 306
331 332 332 331 330 330 332 332 332 332 331 330 332 333 332 329 324 324 327 329 331 332 332 332 332 332 333 333 332 330 327 327 328 328 328 329 330 330 329 328 328 326 324 323 322 321 320 318 318 318 317 317 316 318 322 326 333 334 334 334 333 332 332 332 331 330 330 331 331 330 328 327 325 323 320 318 316 313 310 309 308 307 306 306 306
332 332 332 332 331 331 332 331 331 331 330 330 331 331 330 327 324 326 329 330 331 332 332 332 331 332 333 333 331 328 326 327 330 331 330 329 329 329 328 327 328 327 325 324 323 323 322 320 319 318 318 317 317 319 322 328 333 334 334 334 333 332 332 332 331 330 330 331 331 330 330 329 328 325 323 320 318 315 312 310 309 308 307 306 306
332 332 332 332 331 331 331 331 331 331 331 331 330 330 330 327 326 328 330 331 331 332 332 331 332 332 333 332 329 327 327 329 332 332 330 329 328 327 326 327 327 328 327 324 324 323 322 321 320 319 319 318 318 320 323 327 331 334 334 333 332 332 333 332 332 331 330 330 330 331 331 330 329 327 326 322 319 318 315 312 310 309 308 307 306
332 332 332 331 331 331 331 331 331 331 331 332 331 330 330 328 328 330 330 331 331 331 331 332 332 333 333 331 328 327 328 330 330 329 329 328 328 326 326 327 327 327 327 326 324 323 322 322 322 321 321 320 319 320 322 325 328 331 333 332 331 330 331 332 331 330 329 329 330 331 331 330 330 328 326 324 321 319 317 314 311 310 309 308 308
332 332 332 332 331 331 332 332 331 331 331 332 332 331 330 329 329 331 331 331 331 331 331 331 332 333 331 328 327 328 329 328 327 327 328 328 328 327 328 327 327 326 327 327 326 324 322 323 325 325 324 324 323 323 323 325 325 327 329 330 329 329 330 330 328 328 329 330 330 330 330 330 329 328 325 323 321 320 318 316 314 311 309 309 308
333 332 333 332 332 332 332 332 332 331 332 332 332 332 331 330 330 330 331 331 331 331 331 331 331 332 328 326 328 328 328 326 325 326 327 328 328 327 327 327 327 327 327 328 327 326 324 323 325 326 327 327 327 327 327 327 326 323 325 327 328 328 328 328 328 329 331 331 331 330 330 329 327 326 324 323 322 320 318 317 315 313 310 309 309
333 333 333 333 332 332 332 332 331 332 333 332 332 332 332 331 331 331 330 331 331 331 331 331 331 330 326 325 327 327 327 326 326 327 328 328 328 327 326 327 327 327 327 328 328 328 327 326 326 326 327 328 329 329 329 329 328 325 323 325 327 328 329 328 329 331 332 331 330 329 329 328 326 325 324 323 322 321 319 318 317 314 311 309 308
334 334 333 333 332 332 332 332 332 333 333 333 332 331 332 332 331 331 330 330 330 331 331 331 331 329 326 325 326 327 327 326 326 327 328 329 328 327 327 327 327 326 326 327 328 328 328 328 328 328 327 328 328 329 329 329 329 328 326 326 327 328 329 329 329 331 332 331 329 328 328 328 326 325 324 323 322 321 320 319 317 314 311 310 309
334 334 334 334 333 333 332 332 332 333 332 332 332 331 332 333 332 330 330 330 330 331 331 331 330 329 326 325 326 327 327 326 326 327 328 329 328 328 327 327 326 325 325 326 326 327 328 327 327 327 326 326 327 327 328 328 327 328 328 328 328 328 328 329 329 330 331 329 328 328 328 328 325 325 324 323 322 322 321 320 319 316 312 310 310
336 336 336 335 334 334 333 333 333 332 332 332 332 332 332 333 331 330 329 329 330 330 330 329 328 327 326 326 327 328 327 326 326 326 328 329 329 329 328 328 327 326 325 324 325 326 327 326 326 326 326 326 326 327 327 327 325 326 326 326 328 328 328 328 328 328 328 327 327 327 328 327 325 325 324 324 322 323 322 321 322 321 317 314 314
337 337 337 337 336 335 334 334 333 332 332 332 333 332 332 332 330 329 329 329 329 329 328 327 327 326 327 327 328 329 328 327 326 326 328 330 329 329 329 328 328 327 325 324 323 324 326 326 327 326 326 325 326 327 326 326 326 326 325 326 328 328 328 327 327 327 326 327 327 327 328 327 326 325 325 324 323 324 323 322 322 321 322 322 322
338 338 338 338 336 335 334 334 333 333 333 333 333 332 331 331 329 329 329 329 329 328 327 327 327 327 328 328 328 329 329 329 328 328 329 330 330 329 329 328 328 326 325 325 323 323 326 327 327 326 326 326 326 326 326 326 327 327 326 327 328 328 327 326 327 327 326 328 328 327 327 327 326 326 325 324 324 324 324 323 321 320 322 323 324
339 339 338 338 336 334 335 334 334 334 333 333 333 332 331 330 329 329 329 329 329 328 328 328 328 328 328 329 329 329 330 330 330 329 329 330 330 329 329 328 327 327 326 325 323 323 325 326 326 325 325 326 326 326 325 325 327 328 328 328 328 327 326 326 326 326 327 328 329 328 328 328 327 326 325 325 324 324 324 324 322 320 321 322 324
339 339 339 338 335 334 335 334 334 334 334 333 332 331 330 329 329 329 329 329 328 328 328 328 328 328 328 329 330 330 329 329 329 329 328 329 329 329 329 328 327 327 326 324 322 323 324 325 325 324 325 326 326 326 325 326 327 328 328 328 328 327 326 325 325 325 326 327 328 329 329 328 327 326 325 325 325 324 324 325 322 321 321 321 323
338 338 338 336 334 334 334 333 334 333 333 332 331 330 330 329 329 330 330 328 328 327 328 328 327 328 328 329 329 329 328 328 329 328 328 329 329 329 329 328 328 327 327 325 324 324 324 325 325 325 326 326 326 326 326 326 327 327 327 327 327 326 326 325 325 325 325 325 328 330 329 328 327 326 326 326 325 324 325 325 324 323 322 321 320
338 338 337 335 334 333 333 332 332 332 332 331 330 330 330 329 330 330 329 328 328 327 328 329 328 328 329 328 328 328 328 328 328 328 328 329 329 329 329 328 328 327 327 326 325 325 325 325 325 325 326 326 326 326 326 326 326 326 326 326 327 326 325 325 325 325 325 326 329 330 329 328 327 326 326 326 325 324 325 325 325 324 323 321 321
337 337 337 335 334 333 333 332 332 331 330 330 330 330 329 329 329 329 329 328 327 328 329 330 330 329 328 327 327 327 327 327 327 327 327 328 328 329 329 328 328 327 327 326 326 326 326 325 325 325 325 326 325 326 326 326 326 326 326 326 326 326 325 326 326 326 326 327 328 328 328 328 328 327 326 326 325 325 325 326 325 325 324 322 321
336 336 336 335 334 333 333 333 332 330 329 329 330 330 330 329 329 329 328 328 328 329 330 330 329 329 327 326 326 326 326 326 326 326 326 326 327 328 328 328 328 327 327 327 326 326 326 326 326 325 324 325 325 325 326 326 326 327 327 327 327 326 326 326 326 326 327 327 326 327 328 329 328 328 327 326 325 325 326 327 326 326 325 324 322
336 336 335 333 333 333 333 333 332 330 329 329 329 329 330 329 328 327 327 329 330 329 329 328 327 327 327 324 324 324 325 325 324 325 326 325 326 327 327 328 327 327 327 326 326 327 327 326 326 325 325 325 324 324 325 326 326 327 328 328 328 328 327 327 327 327 327 327 326 326 328 328 328 328 328 327 326 326 327 326 325 326 326 325 324
336 335 335 334 334 334 333 332 331 330 329 329 328 328 329 328 326 327 329 329 329 329 328 326 324 324 324 322 319 320 322 324 324 324 325 325 325 325 326 327 327 326 326 326 326 327 327 326 326 325 324 324 323 323 325 327 327 327 327 328 328 328 328 328 328 328 328 327 327 327 328 328 327 328 328 328 327 326 326 326 325 326 325 325 325
335 334 335 335 335 335 333 332 331 330 330 329 328 328 328 327 327 328 329 329 328 328 326 323 320 318 317 317 316 317 320 322 323 324 325 326 325 325 325 326 327 327 326 326 326 326 327 327 326 325 324 323 323 324 325 327 327 327 327 327 327 327 327 328 327 328 328 327 327 327 327 327 327 327 327 327 327 326 326 326 325 325 324 325 325
335 334 334 334 334 334 333 332 331 331 330 329 329 328 328 327 329 330 329 329 328 327 326 323 322 318 314 314 316 317 318 319 322 324 325 325 324 324 324 324 325 326 326 326 326 326 327 327 327 325 325 324 323 324 325 326 326 327 327 327 327 326 326 327 326 327 327 326 327 327 327 327 326 326 326 326 326 326 326 326 326 325 324 325 325
334 333 333 333 333 332 332 331 331 331 329 329 329 329 329 329 330 330 329 329 329 327 327 325 325 323 317 315 316 317 318 318 320 322 322 322 321 322 323 323 324 324 323 325 325 326 326 326 326 326 325 325 324 324 325 326 326 327 326 326 326 326 326 326 326 326 326 325 326 327 326 326 326 326 326 326 326 326 326 326 326 325 325 326 326
335 333 333 333 333 331 331 331 331 330 329 329 329 329 330 329 329 329 328 328 328 328 327 325 324 324 320 316 316 317 317 317 319 318 316 318 318 319 321 322 322 323 323 324 325 325 326 326 325 325 326 325 325 325 325 326 326 327 326 325 325 326 325 325 325 325 325 325 326 326 326 325 326 326 326 326 325 325 325 325 325 325 325 325 325
334 333 332 332 332 331 330 331 332 330 328 328 329 329 329 329 329 328 327 327 326 326 327 326 324 322 320 318 317 318 319 318 317 315 313 316 317 317 320 322 323 323 323 324 324 324 325 325 325 326 326 326 326 326 325 325 326 326 326 325 324 325 325 324 324 324 325 325 325 325 326 326 326 325 325 324 324 325 325 324 324 323 323 323 323
332 330 330 330 330 331 331 331 332 330 329 329 329 329 329 328 328 327 326 326 325 324 326 326 322 319 317 318 319 320 321 319 316 313 312 315 317 317 320 322 322 324 325 325 325 325 325 324 325 326 326 326 326 326 325 324 325 326 326 325 325 325 325 324 324 323 324 326 325 325 325 325 325 324 323 323 323 324 323 322 322 322 321 321 322
331 327 328 329 329 331 332 332 332 330 330 329 329 329 328 327 327 326 326 326 325 325 324 320 318 315 315 318 320 321 321 318 315 313 312 315 317 316 317 319 320 322 324 324 324 324 325 325 324 324 325 325 325 325 325 324 324 325 326 325 325 325 325 325 325 324 324 324 325 324 324 324 323 323 323 323 322 322 321 321 321 321 321 321 321
331 329 329 330 330 331 332 332 331 331 331 330 329 329 328 327 326 325 325 325 326 325 320 316 316 315 315 318 320 321 319 316 315 315 315 317 318 318 317 318 318 319 319 320 319 320 322 323 322 322 324 325 324 324 324 324 324 325 325 325 324 324 324 325 325 325 324 323 324 324 324 323 323 323 323 322 321 321 321 321 321 321 321 321 321
333 332 331 330 330 331 331 331 330 330 331 330 329 329 328 327 326 326 325 325 327 324 316 315 318 318 317 317 318 319 318 317 317 317 317 318 320 320 320 319 318 317 316 317 317 317 319 321 321 321 323 324 324 324 324 323 323 324 325 325 324 324 324 325 325 325 324 323 324 324 323 323 322 321 320 320 320 320 320 320 321 321 321 320 320
Wind_Speed
30 27 25 26 24 24 23 25 25 24 23 22 22 20 19 17 18 17 17 17 18 20 20 21 20 20 19 19 18 17 16 14 13 12 11 11 10 10 11 11 12 12 11 10 10 11 12 13 14 15 15 15 17 18 17 17 18 18 19 20 23 24 25 25 26 26 25 21 17 16 17 16 17 18 18 18 19 19 18 17 18 18 17 16 16
31 28 26 25 24 24 24 25 25 25 24 22 22 20 19 18 18 18 18 18 18 19 20 20 20 20 19 19 18 17 16 14 13 12 12 12 13 12 13 13 13 12 12 10 11 14 14 15 16 17 17 17 17 17 17 17 17 17 17 20 22 24 25 26 26 27 27 24 20 16 17 16 17 18 18 17 18 18 17 16 16 17 17 15 15
31 28 25 25 24 25 25 25 26 25 24 23 23 21 19 18 18 18 18 19 19 20 20 20 20 19 19 19 18 18 16 15 14 13 14 14 14 14 14 14 14 13 12 11 13 15 16 17 18 18 18 18 17 17 17 16 16 15 16 19 22 23 24 24 25 26 27 25 21 16 16 16 16 16 16 17 17 16 16 15 15 16 16 14 15
31 28 26 26 25 25 25 26 26 25 24 24 23 21 20 18 18 18 18 19 19 20 20 20 20 20 20 20 19 18 17 16 15 14 14 14 14 14 14 14 14 14 13 13 15 17 18 19 19 19 19 18 17 17 17 16 15 15 15 17 20 21 20 21 24 25 26 25 23 17 14 15 14 14 14 16 17 15 15 15 14 14 14 14 14
30 29 29 28 26 26 25 26 26 25 25 24 23 21 20 18 18 17 18 18 19 20 20 20 20 20 20 20 20 19 18 16 15 15 16 16 15 14 14 14 14 15 14 15 17 18 19 19 19 19 19 18 18 17 17 16 15 14 14 15 16 18 16 18 22 24 25 24 22 18 15 16 14 12 13 14 14 15 15 14 13 12 13 14 14
30 30 30 29 28 26 26 26 26 26 25 24 23 22 20 18 17 17 17 17 18 19 20 20 19 20 20 20 20 19 18 17 15 16 17 16 14 13 14 14 14 15 15 16 18 18 19 19 19 19 19 18 18 17 17 16 15 14 15 15 15 17 16 15 18 22 23 23 22 18 16 16 16 13 12 13 12 14 15 13 12 12 12 13 13
30 30 30 29 28 27 26 26 26 25 25 24 23 22 20 18 17 16 16 16 17 18 19 19 20 20 20 19 19 17 16 16 15 15 15 15 14 13 13 13 14 14 14 16 18 18 19 20 19 19 19 18 17 16 15 15 15 14 15 15 15 17 18 16 18 21 22 23 21 18 16 15 17 15 12 12 10 11 13 11 12 12 12 12 12
30 29 29 29 28 27 26 26 26 25 24 23 23 21 19 18 17 16 15 15 16 16 17 18 19 19 19 18 17 16 15 14 13 14 14 13 13 12 13 13 13 14 15 17 18 18 19 20 19 19 18 17 17 16 15 14 13 12 14 16 17 17 18 18 19 21 22 23 20 17 16 14 15 15 13 13 12 11 11 11 10 10 11 12 12
30 28 29 28 27 26 25 26 26 25 24 23 22 21 19 17 16 15 14 14 14 15 15 16 17 17 17 17 17 16 14 13 12 12 12 11 11 11 12 12 12 13 15 17 18 18 19 19 18 18 18 17 16 15 14 13 12 11 12 16 17 17 17 19 19 20 21 22 20 16 15 14 14 16 15 15 15 14 13 11 11 10 10 10 10
30 28 28 27 27 26 26 26 26 25 24 22 21 20 19 17 15 15 14 13 12 13 14 14 15 16 15 15 15 15 13 12 11 11 10 9 9 9 9 10 11 11 14 17 18 18 19 18 18 18 18 17 16 15 14 12 10 8 12 15 15 16 17 19 19 20 20 21 20 16 15 14 15 16 16 16 17 17 16 14 13 13 12 11 9
30 29 27 26 26 25 25 25 25 25 23 22 20 20 18 16 15 14 13 12 11 12 12 13 14 14 14 13 13 12 12 11 10 10 9 9 8 8 8 8 9 10 13 16 18 19 19 18 18 19 19 18 16 15 13 11 9 6 10 14 14 15 17 18 19 19 19 19 19 16 15 15 16 16 16 17 18 19 19 18 17 16 15 13 12
30 29 27 25 25 24 25 25 25 24 23 22 19 19 18 16 14 13 13 11 10 11 12 13 13 14 13 13 12 11 11 11 10 9 9 9 9 8 8 9 9 9 11 15 18 19 20 19 19 19 19 18 17 16 14 10 7 5 8 12 12 14 16 16 17 18 18 18 18 16 15 15 16 16 16 17 18 19 20 20 19 19 18 16 15
31 29 27 25 25 24 24 24 24 24 23 21 19 19 18 16 13 13 12 11 10 11 11 12 13 13 13 12 12 11 11 11 10 10 9 9 10 10 10 10 9 9 10 14 18 19 20 20 20 19 19 19 18 16 14 10 7 4 6 10 11 13 14 15 16 17 18 17 17 15 14 15 16 16 16 17 17 18 19 20 20 20 19 18 17
32 29 26 25 24 23 23 23 24 24 23 22 20 20 19 16 14 13 12 11 11 12 12 12 13 13 14 13 12 12 11 11 10 10 10 10 11 10 10 11 10 10 9 13 16 19 20 20 20 20 20 19 18 17 14 10 7 4 4 8 11 12 13 14 16 16 17 17 16 15 14 15 15 15 15 16 16 16 18 19 19 19 18 18 18
31 29 27 25 24 23 23 23 24 24 23 22 20 20 19 16 14 13 12 11 11 12 12 13 14 15 15 14 13 13 12 11 10 10 11 11 11 11 11 11 11 10 10 11 14 18 20 20 20 20 20 19 19 18 15 11 8 5 3 6 9 10 11 12 14 14 15 17 16 14 13 14 15 15 15 15 15 15 16 17 17 17 17 17 17
29 28 27 25 24 24 23 24 24 24 24 22 21 20 19 16 14 13 12 11 12 12 12 14 15 15 15 14 13 13 12 11 10 10 11 11 11 11 11 11 12 11 10 10 11 15 18 20 20 20 19 19 20 19 16 12 8 6 3 5 8 9 9 10 11 11 13 16 16 14 12 12 14 14 14 13 14 14 15 15 15 16 16 15 15
27 27 27 26 25 25 25 25 25 24 23 22 21 20 19 16 14 12 11 11 12 12 13 14 15 14 14 13 13 12 11 10 9 9 11 11 11 11 11 11 12 12 10 9 10 12 16 19 20 20 19 20 20 20 17 13 9 7 4 4 6 8 9 8 9 10 13 15 15 15 13 11 12 12 13 13 13 13 13 13 13 13 14 14 14
27 27 27 26 26 26 25 26 26 24 24 22 21 20 18 16 13 12 11 11 11 12 13 14 14 14 14 13 12 11 10 9 8 8 10 11 11 11 11 11 11 11 10 9 9 10 13 16 19 19 19 20 21 20 18 13 10 8 6 4 5 7 9 9 9 9 12 14 14 15 13 12 10 10 11 12 11 12 11 11 12 12 12 13 13
28 27 27 27 27 26 26 25 26 25 25 23 22 20 18 15 13 12 11 11 11 11 13 13 13 13 12 12 11 10 9 8 8 8 9 11 11 11 12 11 11 10 9 8 8 9 10 12 15 18 19 20 20 20 19 14 12 10 8 6 6 6 8 8 8 9 11 13 14 14 13 12 10 9 9 10 10 11 11 10 10 10 11 11 12
28 28 27 27 27 26 26 26 26 26 25 24 23 21 17 15 13 12 11 11 10 10 12 12 13 12 11 11 10 10 9 8 8 8 10 10 10 11 11 11 10 9 9 8 8 8 8 9 11 15 19 20 20 20 19 15 13 12 9 7 7 6 6 6 7 8 9 11 12 13 13 12 11 9 8 8 9 9 9 9 9 9 9 10 10
29 29 27 28 27 27 27 26 26 25 25 24 22 20 17 15 13 13 12 11 11 10 11 11 12 11 10 10 10 9 9 8 8 8 9 10 9 10 10 10 9 9 8 8 8 8 8 8 9 11 15 19 19 20 19 16 15 13 10 7 7 7 5 5 6 7 8 9 9 11 11 11 11 11 9 7 6 7 7 7 8 8 8 9 9
31 29 27 28 27 27 26 25 26 25 25 23 22 20 17 15 14 14 13 12 12 11 11 11 11 10 9 9 9 8 8 8 8 8 8 9 9 9 8 8 8 8 8 7 7 7 7 7 8 9 12 16 19 20 19 17 16 14 10 7 6 7 6 6 5 5 6 7 8 9 10 10 11 11 11 9 7 5 5 6 6 7 7 8 8
31 30 28 28 28 27 26 25 25 25 24 23 21 19 17 16 15 14 13 13 13 12 11 11 10 9 9 8 8 8 8 8 8 7 7 8 8 7 6 7 7 7 7 6 6 6 6 6 7 8 10 14 18 19 18 17 17 15 11 8 7 7 7 6 5 5 5 5 6 8 8 8 9 10 11 11 9 6 3 4 5 5 6 6 6
32 30 29 28 28 27 27 26 25 24 23 22 21 18 17 16 15 15 13 13 13 13 12 11 11 10 10 9 8 8 8 8 8 7 7 7 7 7 6 6 6 6 6 6 5 5 5 5 6 8 10 13 16 18 17 16 17 16 12 9 7 7 6 6 5 5 4 3 4 6 5 6 7 8 10 10 9 7 4 2 3 3 4 4 5
32 30 30 29 28 27 26 26 24 23 22 21 20 18 18 17 16 15 14 14 14 13 12 11 11 11 10 9 8 8 8 8 8 7 6 5 6 6 6 5 5 5 5 6 6 5 5 5 6 7 9 11 14 16 15 15 17 17 14 11 8 7 6 6 5 5 4 2 2 3 4 5 6 7 8 8 8 7 5 2 1 1 1 2 3
31 30 30 28 27 26 25 25 23 22 20 19 18 18 18 17 17 16 15 15 14 14 13 12 12 11 11 9 8 8 8 8 7 6 5 4 5 5 5 6 5 4 5 5 6 5 5 6 6 7 8 10 11 13 14 14 15 16 15 13 10 8 7 6 5 3 2 1 1 1 2 4 6 7 7 7 6 6 5 2 2 1 1 0 1
32 30 29 27 26 25 24 23 22 21 19 18 17 17 17 17 17 16 16 15 14 14 14 13 12 11 11 9 8 8 9 8 6 6 5 4 5 5 5 6 6 5 5 5 5 6 6 6 6 6 7 9 10 10 11 11 12 14 15 13 11 9 8 7 6 5 4 3 2 1 1 2 4 5 5 5 5 4 3 2 2 2 3 2 1
32 30 28 26 26 24 23 22 21 20 19 18 17 17 17 17 17 16 16 15 14 15 14 13 12 11 11 10 9 8 8 7 6 6 5 5 5 5 4 5 6 5 6 5 6 6 6 7 6 6 6 7 8 8 8 8 8 11 14 13 11 10 9 8 7 6 4 3 3 2 0 1 1 2 2 2 3 3 2 2 2 2 3 3 3
31 30 27 25 25 23 22 20 20 20 18 18 17 17 17 17 17 17 16 15 15 15 14 13 12 12 11 9 8 7 7 6 6 6 6 6 6 5 3 4 5 4 5 6 6 6 7 7 7 7 6 7 7 7 7 7 7 8 11 12 11 10 9 8 7 5 4 4 4 3 1 0 0 1 1 2 3 2 1 2 2 3 4 4 4
30 29 26 25 24 22 21 20 20 20 19 18 18 18 17 16 17 16 15 14 15 14 13 12 12 11 10 9 8 7 7 7 6 6 6 6 4 3 2 3 4 3 4 5 6 7 7 7 7 7 6 6 6 5 5 6 6 7 9 10 10 9 8 8 7 6 5 5 5 4 3 2 2 1 1 3 3 3 1 1 1 2 4 4 4
29 27 25 24 23 22 21 20 20 21 20 18 18 17 16 16 17 16 15 14 14 14 13 12 12 10 9 9 7 6 7 8 7 5 6 5 4 3 1 2 3 3 3 3 5 7 7 6 6 6 6 6 5 5 4 4 5 6 8 9 9 8 7 6 6 6 6 5 5 4 4 4 4 3 0 2 3 2 2 1 0 1 3 4 3
27 25 24 23 22 21 21 21 22 22 21 19 18 17 16 16 17 16 15 15 14 14 13 12 11 10 9 9 8 6 7 8 7 6 6 6 5 4 2 3 3 4 4 3 4 6 7 6 6 6 5 5 4 3 3 3 4 5 7 8 8 7 5 5 5 6 6 5 5 5 5 6 5 4 2 1 3 2 2 2 1 1 0 2 2
24 23 23 22 22 20 20 21 23 22 21 19 18 17 16 16 16 16 15 15 14 13 12 11 10 10 9 9 9 7 7 8 8 7 6 6 6 4 3 3 3 4 4 3 4 5 6 6 6 5 4 4 3 3 2 3 3 4 6 7 7 5 3 4 5 6 5 5 6 6 6 6 5 4 2 0 2 2 3 4 3 2 0 2 1
23 23 23 22 20 19 20 22 23 22 21 20 19 18 17 16 16 16 15 14 13 12 11 11 10 10 9 9 8 8 7 8 8 6 6 6 5 3 3 3 2 3 4 4 4 5 6 6 5 5 4 4 3 2 2 2 2 3 5 6 6 3 2 3 5 5 5 6 6 6 6 6 6 4 2 1 1 2 2 3 5 3 1 3 0
23 24 24 21 19 18 20 23 23 22 21 20 19 18 17 17 16 15 15 14 13 12 11 11 10 9 8 8 7 7 7 6 6 5 6 6 5 3 3 2 2 3 4 4 4 5 6 6 5 5 5 4 3 2 2 2 1 1 4 5 5 4 2 3 4 5 5 6 5 5 7 6 6 5 3 2 1 2 2 2 4 4 4 4 1
24 25 25 22 19 19 21 23 23 22 21 20 18 18 17 17 16 15 14 14 13 11 11 10 9 9 8 7 7 7 6 6 5 5 5 6 5 4 3 3 3 4 4 4 4 5 5 5 5 5 5 4 4 3 3 3 2 2 3 4 4 4 4 3 4 5 5 5 5 6 7 7 6 5 4 3 2 2 1 1 3 4 5 5 5
25 26 26 23 21 21 22 22 22 21 21 19 19 19 18 17 16 15 14 13 12 10 10 9 8 8 7 7 8 8 7 6 5 5 5 5 5 4 4 4 4 5 5 4 5 5 5 5 6 6 5 5 5 4 4 4 4 3 3 4 4 4 4 3 4 6 6 6 6 7 7 7 6 6 5 4 3 2 1 1 1 3 3 3 3
25 26 25 24 23 23 22 22 22 22 21 19 19 19 19 18 16 15 14 13 12 10 9 8 7 7 7 7 7 7 6 6 5 4 4 5 5 5 5 5 6 6 6 5 5 5 6 6 7 7 6 6 6 5 5 5 5 4 4 5 4 4 5 4 5 7 6 7 7 7 8 7 7 7 6 5 3 2 1 1 0 1 1 1 1
26 27 26 24 24 23 23 23 23 23 22 20 19 20 19 19 17 15 15 14 12 10 8 7 7 6 7 6 6 6 6 5 4 4 4 5 6 6 6 6 7 6 6 6 6 6 7 7 7 7 7 7 7 6 5 6 6 6 6 6 6 5 5 5 6 7 7 7 7 6 8 8 7 7 6 5 4 2 2 2 0 1 1 1 1
26 28 27 26 25 24 24 24 24 24 23 22 21 21 21 20 18 16 16 14 12 11 9 8 8 7 7 7 7 6 5 5 3 4 5 5 6 6 6 6 6 5 6 5 5 6 7 7 7 7 7 7 8 7 6 6 7 7 7 7 7 6 5 5 6 6 6 6 5 6 7 7 7 7 7 6 5 4 2 2 1 0 0 1 1
27 29 28 28 28 26 27 27 25 25 25 24 24 23 22 21 19 17 15 14 13 13 11 10 9 8 8 7 7 6 5 4 4 5 6 6 6 6 6 6 5 5 5 5 6 6 6 7 7 7 7 7 8 8 7 7 7 8 9 9 8 7 6 6 6 5 4 4 5 6 7 7 7 8 8 7 7 6 4 3 2 1 1 1 1
29 29 30 30 29 27 28 29 27 26 25 24 24 24 22 20 18 17 15 15 15 14 11 9 8 8 8 8 7 7 6 6 6 6 6 6 6 6 6 6 6 6 6 5 6 6 6 6 6 6 7 7 7 8 8 9 8 8 8 9 9 8 6 5 5 5 5 4 4 6 6 6 7 7 7 7 8 7 6 5 4 3 3 3 3
28 29 31 31 30 27 27 29 27 26 25 24 24 23 21 18 16 16 16 15 14 12 9 8 8 7 7 8 8 8 8 7 7 6 5 6 5 5 5 6 6 6 5 5 6 6 6 6 6 6 7 7 7 8 9 10 9 9 9 9 9 8 6 4 4 4 5 5 4 4 5 6 6 6 6 6 7 8 7 6 6 5 4 5 5
28 30 32 32 30 27 27 29 27 26 26 25 23 22 20 18 16 17 16 14 13 11 9 7 7 6 6 8 9 8 9 8 7 6 6 5 5 5 4 4 5 5 5 5 5 5 6 6 7 7 7 7 8 9 10 10 9 10 9 8 7 6 5 4 4 4 4 5 5 5 5 5 5 5 5 5 6 6 6 6 7 6 5 5 6
30 31 32 31 29 26 27 28 28 27 27 25 24 22 21 20 19 19 17 15 13 12 10 8 7 5 5 7 8 8 8 8 8 8 7 6 5 5 4 5 5 5 6 5 4 4 6 6 7 8 8 7 7 8 9 10 10 10 9 7 6 4 5 7 7 5 3 5 7 6 4 4 3 3 4 4 4 4 4 5 5 5 5 4 5
31 30 30 29 27 27 27 27 28 29 27 25 24 23 22 22 22 20 18 17 16 14 11 7 6 5 5 6 6 6 6 7 8 7 7 7 7 6 6 5 5 5 6 7 5 5 6 7 7 9 9 8 7 6 7 9 10 11 10 8 5 2 6 10 9 8 5 4 6 6 5 4 4 4 3 2 2 2 1 2 3 3 3 3 3
29 29 30 29 28 29 29 27 28 29 27 25 23 23 23 22 21 19 17 17 15 13 9 6 5 5 6 7 6 5 5 5 5 5 6 8 8 8 7 6 6 5 6 6 6 5 6 7 8 9 9 9 8 6 6 8 10 11 9 9 6 2 4 9 8 8 9 8 5 6 6 5 5 4 2 1 0 0 1 1 1 2 2 2 1
27 29 29 29 30 31 29 27 28 28 26 24 23 23 23 22 20 18 16 14 11 10 8 7 7 7 8 8 6 5 4 2 2 4 7 9 8 8 8 7 7 6 5 5 4 4 5 6 7 9 9 8 8 7 6 7 9 10 8 8 7 6 7 9 6 6 10 13 9 7 7 7 6 5 4 3 4 4 3 3 2 2 2 3 4
28 29 27 27 30 31 30 28 28 27 26 24 23 23 22 21 20 17 15 13 10 8 8 9 9 8 8 7 6 5 3 3 3 6 8 9 7 7 7 7 7 7 7 5 4 5 5 5 5 7 8 8 8 8 7 8 9 10 8 7 7 8 10 10 6 6 8 13 13 10 9 9 8 8 7 7 8 7 7 6 6 6 6 6 7
29 29 28 28 29 31 30 30 29 28 27 25 25 25 24 22 20 18 16 14 12 11 11 12 11 9 8 7 7 5 4 5 5 6 7 7 6 5 5 6 6 6 7 6 5 5 6 5 5 6 7 7 8 8 7 7 9 10 9 7 7 10 12 11 9 8 9 10 12 12 11 11 11 10 9 9 9 9 9 8 8 8 8 9 9
29 29 29 29 29 30 30 30 31 30 28 26 27 28 26 24 21 19 17 16 15 13 14 14 12 10 9 9 8 6 6 6 5 4 5 5 4 3 3 4 4 5 5 6 6 5 5 5 5 5 7 7 8 8 8 7 8 9 9 8 7 7 7 8 8 9 10 10 13 15 13 12 13 12 11 11 11 11 11 10 10 10 10 10 10
Wind_Direction
165 164 165 164 167 165 165 165 163 159 154 151 148 142 136 132 130 127 127 133 140 145 148 151 154 156 159 160 160 158 155 153 151 149 149 149 146 144 142 134 125 118 111 106 103 102 103 102 97 97 98 99 102 103 102 98 96 91 89 85 81 76 70 66 62 58 54 54 67 87 98 99 100 97 93 96 100 101 105 109 107 103 97 91 90
163 163 163 164 167 165 166 166 164 160 155 153 149 144 137 135 132 128 127 130 138 143 145 147 150 153 156 159 160 160 158 155 152 151 150 151 148 146 144 136 129 120 111 105 99 103 107 104 102 103 104 105 107 106 104 100 97 94 93 87 84 79 72 66 60 57 53 50 57 82 100 98 100 100 96 96 99 103 108 111 109 105 99 95 91
161 161 162 163 166 166 167 166 165 161 157 154 151 146 140 138 135 131 128 129 135 141 145 146 148 149 151 153 155 157 157 157 156 154 151 148 144 144 142 136 130 120 113 106 101 107 110 108 109 109 108 110 109 106 104 101 96 96 95 87 82 79 70 62 58 56 53 48 48 69 97 100 99 102 102 101 100 104 110 111 111 110 104 100 95
163 160 163 163 165 166 167 166 166 162 158 156 153 149 142 141 138 135 130 129 131 137 142 145 147 148 149 150 152 154 156 157 158 155 146 141 137 137 137 135 132 122 114 108 107 111 113 114 114 113 113 113 110 107 103 99 95 92 93 87 80 77 70 58 54 55 52 47 44 55 86 99 100 104 106 106 105 105 107 110 112 116 114 108 102
164 162 163 162 165 167 168 167 166 164 160 158 156 150 145 143 141 138 132 130 130 134 139 144 149 150 151 151 151 152 154 154 153 149 140 140 137 135 134 133 132 125 116 110 111 114 116 118 118 117 117 115 112 108 102 97 92 88 87 82 74 71 68 56 50 52 50 45 42 48 67 88 95 97 104 108 110 110 109 109 117 126 128 121 112
164 163 164 162 165 167 168 168 167 165 161 159 157 152 148 146 144 140 135 132 131 134 137 141 146 150 151 150 150 148 150 148 144 141 139 140 136 130 130 133 132 125 119 116 115 116 119 120 120 120 119 117 113 107 101 94 89 87 84 78 72 67 67 62 52 50 49 43 41 46 56 76 86 86 98 109 113 121 120 114 125 136 140 136 127
164 164 163 163 165 167 167 168 168 165 162 161 159 155 151 148 147 143 138 136 134 136 137 139 142 146 148 148 146 142 143 142 140 136 135 134 132 128 127 132 133 128 122 120 119 119 121 122 122 122 120 116 110 105 99 94 89 87 84 79 73 69 68 66 57 51 48 42 41 47 50 64 83 91 95 103 109 122 129 126 131 139 146 151 145
164 163 162 165 166 167 167 169 168 166 164 162 160 157 153 148 147 146 143 140 138 138 138 140 142 144 145 144 140 137 139 140 138 130 126 126 128 130 128 131 136 136 129 122 121 122 123 124 124 123 119 115 110 105 99 95 92 87 84 78 72 71 69 64 57 52 47 41 42 49 50 52 74 91 91 94 98 103 123 131 133 139 143 155 161
163 161 162 165 167 167 167 169 169 167 165 163 161 158 154 149 149 151 149 145 142 141 140 141 142 143 142 142 138 138 141 136 130 123 120 120 122 129 132 135 139 141 131 123 124 124 125 125 125 123 119 116 111 106 102 98 94 90 84 78 75 73 69 64 58 52 46 40 42 50 51 50 61 79 86 89 90 91 103 112 120 128 125 136 159
161 160 163 167 168 168 167 169 169 168 166 164 162 159 155 151 151 155 153 146 143 143 143 143 142 140 137 136 135 135 135 130 125 123 121 119 119 123 128 132 137 143 133 126 128 127 127 127 125 124 121 118 114 108 104 101 96 92 84 79 76 72 67 64 58 52 45 39 41 47 49 50 57 68 76 79 82 86 94 99 103 109 106 109 128
159 160 164 167 168 167 168 170 170 168 167 164 162 160 158 154 155 157 155 146 143 146 145 145 141 137 132 129 127 126 125 124 124 125 126 126 128 126 124 125 132 145 138 130 132 132 130 129 127 126 124 120 116 111 108 104 100 91 81 79 76 72 67 63 59 52 44 40 41 45 46 49 55 61 67 71 74 79 85 89 91 96 97 98 102
159 161 164 167 167 166 167 169 169 168 167 164 162 162 161 158 157 159 156 147 145 148 146 144 141 137 133 129 126 126 125 124 123 124 130 133 135 134 130 127 129 139 141 134 135 135 132 132 131 129 128 124 121 117 114 113 107 89 75 78 78 73 67 63 59 52 46 44 44 47 47 47 52 57 61 65 69 73 78 82 85 89 91 92 92
159 161 163 165 165 166 167 168 168 168 167 165 164 166 166 162 160 161 159 153 150 149 145 141 139 137 134 131 131 132 132 130 125 123 126 131 135 137 135 131 126 126 133 134 137 137 135 136 135 134 132 128 126 123 121 121 118 100 74 77 79 73 67 64 59 56 54 49 46 48 48 46 50 55 58 62 65 70 76 79 81 83 86 87 88
160 160 161 163 164 165 166 166 167 168 168 166 166 168 168 166 164 164 163 159 152 148 145 140 139 138 134 131 131 131 134 134 128 122 121 125 130 133 133 131 126 122 124 129 137 140 141 141 140 139 137 134 131 129 129 132 131 121 87 83 82 76 69 65 63 62 58 52 48 48 47 48 50 53 56 60 64 68 74 77 79 81 82 84 85
158 157 158 161 163 163 164 165 166 168 169 168 168 170 170 169 167 166 166 161 151 147 146 144 143 139 134 129 127 126 130 132 128 124 120 121 124 126 126 126 123 118 118 123 133 141 145 146 145 144 140 138 137 136 137 143 143 133 112 91 88 81 72 67 67 62 53 48 47 48 47 48 50 53 55 59 63 67 71 76 79 80 81 81 83
155 154 157 160 161 161 162 163 167 170 170 169 169 171 172 171 169 168 166 159 148 147 148 147 145 139 134 129 126 126 128 124 118 120 118 119 121 122 122 122 121 116 120 122 129 139 147 150 149 148 146 144 143 143 144 149 150 139 126 98 96 90 80 71 66 58 46 42 43 46 48 49 51 52 56 59 62 66 70 74 78 80 81 80 80
154 155 158 160 161 161 161 163 167 169 169 170 171 172 173 172 170 168 164 157 147 146 149 149 147 140 135 131 130 130 127 116 109 114 114 115 116 118 119 120 123 126 133 131 129 134 142 151 153 152 151 152 149 148 148 152 158 149 141 106 98 99 94 80 68 57 43 38 37 38 43 52 54 50 53 58 61 66 70 72 76 79 79 78 78
157 159 160 161 162 161 162 164 166 168 170 171 172 173 175 173 169 167 162 155 147 147 150 150 151 145 140 137 135 131 123 114 108 112 113 112 112 113 114 116 119 125 134 130 127 127 131 144 153 155 155 156 156 153 152 156 165 160 150 127 103 103 103 92 75 59 43 36 31 29 35 46 53 49 49 55 61 65 67 70 73 76 77 77 77
160 162 163 165 163 161 162 165 167 169 171 171 172 174 174 172 167 166 159 154 151 153 154 153 154 150 146 142 138 133 126 120 115 117 119 117 113 112 110 109 111 112 119 119 121 124 125 132 144 155 158 160 160 159 158 160 173 171 159 148 126 112 106 100 82 65 48 37 31 29 32 39 48 50 45 51 59 65 67 69 70 72 75 77 77
162 165 166 167 164 163 164 167 170 170 172 172 173 173 170 170 166 164 159 157 157 160 159 155 158 155 149 145 143 139 132 128 124 123 124 123 118 113 108 105 105 103 105 107 111 117 127 132 135 148 159 164 166 166 164 166 179 179 168 162 146 132 114 101 85 69 53 38 32 32 31 33 41 44 41 45 56 64 69 68 67 69 72 76 78
166 169 168 168 165 166 167 169 170 172 173 172 174 171 168 169 166 163 161 162 164 167 165 160 163 161 155 151 150 148 140 138 134 129 125 126 122 115 109 104 103 101 99 99 102 108 121 136 138 140 152 164 170 171 171 174 182 181 172 170 155 145 128 105 93 73 56 41 33 32 31 30 33 33 30 34 50 64 70 69 66 67 69 72 75
169 170 169 170 169 168 169 171 172 173 175 174 175 170 169 172 166 166 166 168 171 172 172 168 169 168 165 161 159 157 147 142 136 130 126 126 124 118 112 107 106 104 104 102 101 103 108 123 137 140 142 157 170 176 180 181 183 181 173 171 160 149 136 120 112 87 64 47 40 38 35 31 29 28 25 24 30 47 67 71 68 66 66 69 73
170 170 169 171 171 170 172 174 174 175 176 175 175 172 171 172 170 172 173 174 174 175 178 176 175 175 174 172 169 164 152 143 137 132 129 129 130 130 127 119 117 114 114 111 103 101 103 111 127 140 143 152 166 177 183 183 182 181 175 171 164 157 141 128 126 105 78 51 43 45 38 29 24 26 27 25 21 20 38 63 66 65 63 65 70
172 172 171 173 174 174 175 176 176 177 178 177 177 176 173 174 176 177 178 179 178 177 180 179 179 181 181 179 176 167 156 147 143 142 139 140 143 142 139 129 125 124 122 113 108 105 104 112 123 137 147 153 162 172 180 183 184 181 177 174 170 168 152 134 130 119 102 65 40 43 36 22 17 22 29 29 24 19 16 31 58 65 65 66 69
175 175 173 174 176 177 177 177 179 180 179 180 180 180 178 178 180 182 184 185 183 181 181 181 183 186 185 183 179 167 155 149 147 150 147 145 144 138 132 128 130 138 134 122 121 120 112 120 131 139 147 155 162 168 176 184 187 185 181 178 175 177 175 162 149 137 131 113 58 43 29 11 8 14 22 27 25 22 15 351 342 57 73 74 77
177 176 176 177 177 179 180 180 182 182 181 182 183 185 183 183 185 188 191 190 187 184 183 185 188 188 186 184 179 166 156 154 154 157 155 151 144 132 125 128 140 153 150 138 133 129 124 130 141 146 148 156 162 168 176 184 191 190 187 188 186 190 200 198 185 176 192 207 182 81 34 10 9 9 11 18 21 20 13 353 297 262 231 163 101
179 178 179 178 178 181 182 183 184 184 184 185 187 188 187 189 192 195 196 195 191 187 187 190 191 188 187 184 176 168 163 163 167 170 167 159 151 143 139 142 145 151 156 151 146 141 140 145 151 156 157 161 167 172 177 181 190 194 194 197 197 201 214 223 227 225 233 245 244 239 57 26 20 19 13 10 12 14 8 355 302 261 240 233 215
181 180 181 180 180 183 183 184 186 187 189 189 190 191 191 193 196 200 200 199 196 191 192 194 193 189 187 184 177 175 171 172 181 183 180 173 169 165 165 167 154 145 156 160 158 156 159 164 165 170 172 173 177 184 189 187 189 193 195 199 200 206 220 232 239 236 236 248 255 252 106 56 29 35 30 7 1 3 354 334 303 256 235 231 222
182 181 181 181 183 185 182 184 188 191 194 193 194 194 196 198 201 204 202 201 199 194 195 196 196 191 188 184 182 184 182 189 197 193 190 187 185 180 172 170 163 146 152 161 169 169 171 176 179 182 185 187 190 198 206 202 194 195 197 201 204 209 221 233 246 248 240 241 249 257 247 141 17 345 357 10 8 12 356 319 296 246 229 222 216
182 181 180 181 185 186 184 186 190 195 197 197 198 198 201 204 205 206 203 202 200 197 197 198 198 193 189 186 186 192 198 207 208 206 205 202 200 190 168 169 179 171 151 156 173 181 183 185 188 189 193 196 202 207 210 208 202 204 208 212 216 220 226 238 259 263 249 247 254 260 248 211 183 208 332 16 23 28 11 301 247 218 214 210 210
183 181 179 181 185 186 186 189 194 197 199 201 201 202 206 209 210 208 204 201 199 198 197 198 197 194 193 192 193 201 210 212 208 219 227 224 216 201 201 203 205 191 165 161 175 183 188 192 192 191 196 197 202 212 215 221 215 215 220 226 233 237 239 245 266 267 252 248 244 238 221 204 178 168 191 19 18 18 3 333 150 182 206 201 197
184 182 178 182 185 186 187 191 197 198 200 203 204 206 210 211 211 208 202 200 199 196 196 197 197 195 196 198 203 211 214 212 213 226 235 234 223 213 229 231 218 201 193 193 181 181 188 195 198 196 196 191 193 203 213 234 237 236 233 235 240 242 245 250 260 254 240 235 229 220 210 197 165 156 177 10 11 9 14 28 66 18 221 191 199
184 182 180 182 183 185 187 192 198 198 200 204 205 209 211 210 209 204 201 198 196 195 196 198 197 196 198 203 212 217 214 213 220 228 233 234 223 218 241 244 227 213 212 206 185 182 190 195 199 199 194 185 182 182 197 226 247 251 235 230 229 226 235 240 240 236 229 227 223 213 203 186 157 157 181 34 22 20 18 31 35 359 62 150 251
183 183 183 184 185 187 190 194 199 198 200 203 204 207 210 209 203 198 197 195 194 196 199 199 198 198 202 210 218 222 221 217 221 228 230 229 221 227 258 254 232 215 209 194 183 183 185 184 187 192 192 182 171 164 181 206 243 248 226 223 219 210 223 221 218 225 226 219 210 203 199 181 159 161 168 123 44 33 30 26 20 6 91 111 49
185 185 189 192 191 190 193 197 200 199 199 200 201 204 207 205 198 194 194 194 194 196 199 200 201 202 207 218 225 231 235 230 229 234 230 223 223 240 254 241 214 204 203 187 178 176 178 178 179 183 182 173 167 164 181 194 218 226 210 216 216 206 201 200 203 208 205 202 198 197 197 183 162 156 151 139 98 56 45 20 11 25 84 108 156
190 190 193 196 192 190 194 199 200 198 198 198 198 200 202 201 195 194 195 193 193 195 200 202 205 209 214 224 234 241 243 240 241 238 229 222 224 231 221 210 190 185 190 181 171 170 174 178 177 178 175 166 164 166 179 180 176 174 183 194 200 201 200 200 206 201 191 191 192 189 189 181 160 148 150 149 125 98 73 2 354 20 72 123 176
193 195 195 196 191 188 193 200 199 195 196 196 195 197 198 196 192 192 193 192 193 198 205 208 211 216 221 231 238 241 236 232 232 224 220 220 219 218 208 199 185 177 177 174 174 173 172 174 175 175 170 164 161 165 171 161 150 155 163 162 164 178 191 193 188 190 188 185 183 179 180 176 160 154 158 152 136 128 146 214 330 356 37 94 156
195 198 199 197 191 187 192 199 197 192 194 193 194 198 196 194 191 189 191 190 193 198 206 209 210 211 211 219 223 219 213 209 206 198 200 209 211 207 200 192 181 175 171 167 172 172 167 169 172 172 167 162 161 164 165 152 148 157 149 148 155 160 164 156 163 181 188 183 180 176 177 179 169 164 161 151 147 142 167 206 266 330 357 31 107
194 199 201 200 194 188 190 198 196 190 189 190 195 198 195 193 190 188 188 189 194 196 197 198 196 194 189 191 193 188 190 191 181 173 182 197 195 188 187 186 183 176 166 164 168 166 165 166 161 161 167 166 162 162 165 156 153 157 153 152 156 156 158 157 170 186 190 183 183 184 184 187 180 171 167 162 166 172 181 192 188 354 351 3 149
194 199 200 200 198 190 189 195 195 189 187 188 193 196 194 192 191 189 186 187 191 189 187 185 182 179 176 175 176 175 180 180 168 170 180 185 183 179 179 184 188 177 164 164 164 157 163 166 158 157 169 173 167 164 168 166 162 159 158 159 154 154 158 161 172 177 176 172 176 194 197 195 197 188 183 185 183 186 191 179 182 298 94 176 173
196 201 202 202 199 190 187 191 193 192 189 188 190 193 193 191 191 189 186 185 184 180 175 172 171 171 169 166 164 165 168 165 158 166 167 165 170 175 178 185 191 179 164 164 160 155 159 163 163 165 171 178 174 171 168 168 174 168 162 163 163 164 167 168 174 173 172 169 171 197 205 204 212 205 196 203 198 188 189 188 203 236 205 188 194
196 201 204 205 202 194 186 186 190 193 193 192 190 191 193 192 193 189 185 183 177 174 171 165 163 165 167 166 162 158 159 163 162 159 152 147 154 162 170 179 183 173 165 170 162 157 161 160 165 174 180 184 180 178 171 165 177 183 177 172 167 166 172 182 188 187 190 190 193 208 212 211 215 214 210 215 210 197 192 199 209 224 235 227 226
196 200 204 205 206 198 186 184 188 192 196 196 191 191 192 193 194 188 182 179 172 167 164 156 143 144 157 163 162 158 157 161 159 154 149 142 137 141 153 167 172 164 165 178 168 158 162 158 161 173 186 190 183 181 176 169 174 184 185 180 173 165 159 179 193 185 187 187 196 209 207 210 214 220 223 216 213 211 204 211 223 228 241 239 237
199 202 204 205 206 200 188 184 187 192 196 195 190 189 190 189 189 184 177 173 169 163 158 153 135 125 140 150 151 151 151 154 151 147 149 148 144 139 142 153 157 154 161 174 171 167 168 161 158 163 178 193 191 188 184 179 179 186 189 182 180 172 149 162 173 156 171 174 172 187 197 211 222 224 218 205 212 221 214 220 233 241 252 247 243
201 205 206 207 206 200 192 187 186 190 194 192 187 188 189 186 182 179 175 171 170 169 168 167 154 139 144 149 150 148 148 152 152 151 153 160 163 157 151 148 144 146 155 162 168 180 178 168 161 158 165 181 192 194 191 187 186 193 200 185 170 180 180 179 159 124 143 160 150 163 185 193 196 190 188 196 218 229 224 227 236 246 260 264 258
203 207 208 208 206 201 197 191 185 188 191 190 188 190 189 186 184 182 181 178 176 176 176 176 167 161 166 164 160 153 145 148 150 147 153 164 169 169 168 160 153 153 157 159 160 174 180 173 168 161 159 166 179 193 196 194 189 191 203 199 178 201 208 190 161 129 126 133 138 150 158 155 150 153 165 192 242 249 248 244 250 267 284 288 280
203 207 208 208 206 202 199 193 187 187 190 190 191 190 188 187 189 191 191 187 182 177 176 184 184 179 182 177 168 156 141 143 145 133 147 164 167 168 170 165 161 160 160 162 160 167 174 172 170 164 161 165 174 188 200 201 195 192 202 204 199 236 227 202 185 159 139 123 130 153 150 146 144 145 154 166 214 107 29 357 295 311 330 343 61
198 200 204 205 205 202 199 195 190 189 189 190 191 189 188 191 194 196 196 195 189 178 175 188 194 190 185 179 169 161 153 153 146 130 151 165 163 159 161 157 155 155 156 160 166 172 167 164 167 167 168 170 175 185 199 207 202 201 206 205 212 228 215 204 207 203 161 138 136 145 141 139 135 125 117 113 107 100 92 87 85 72 58 63 86
194 195 199 203 204 203 200 196 192 189 187 188 189 188 191 197 198 197 197 195 192 187 186 190 190 188 185 179 172 168 162 162 149 139 151 162 160 155 154 155 156 158 160 160 173 182 171 164 166 169 174 174 177 182 191 207 210 210 211 210 207 195 192 195 194 210 190 156 146 148 141 131 120 109 105 104 101 97 94 91 88 82 79 81 86
194 195 200 203 205 204 201 197 192 188 187 186 187 188 194 199 199 198 197 194 191 195 194 188 184 181 180 179 175 170 159 154 149 139 144 151 154 157 156 160 164 164 168 170 175 180 173 171 167 164 168 170 175 177 176 194 209 212 211 208 192 174 181 197 192 191 195 174 157 154 146 133 122 113 109 106 101 99 93 86 84 82 82 84 85
196 199 201 204 207 207 202 196 191 188 187 185 185 190 196 199 198 198 200 197 195 201 197 187 182 179 177 177 174 170 163 154 145 135 136 143 150 163 169 169 160 146 153 164 169 171 165 165 163 156 161 164 168 172 169 179 197 204 203 199 192 187 192 203 203 195 192 184 165 151 142 134 126 119 115 110 104 99 94 90 89 88 88 86 83